Main page
METAR-TAF:

METAR-TAF

Airports :

Sarakhs Airport

Sarakhs, Iran

latitude: 36-30-04N, longitude: 061-03-54E, elevation: 288 m

Current weather observation

The report was made 27 minutes ago, at 22:00 UTC
Wind 2 kt from the West
Temperature 10°C
Humidity 71%
Pressure 1023 hPa

METAR: OIMC 172200Z AUTO 27002KT //// // ////// 10/05 Q1023

Time: 01:57 (22:27 UTC)


TAF: missing

Weather observations and forecasts of more than 4000 airports (METAR and TAF reports).

The available stations are represented by yellow and red dots on the map.

Hover mouse over dot to see the name of the station.

Then click to see weather observations and forecasts.

To change the map : click on the green buttons with a black cross to zoom in, on the green button with a dash to zoom out, or on the green arrows for adjacent maps.


METAR-TAF: